Date String (YYYY-MM-DD hh:mm:ss) UTC,Instrument flags,Ambient pressure (hPa),Sample flow (lpm),Bypass flow (lpm),Sample temperature (°C),Ambient temperature (°C),ASC tube jacket temperature (°C),LED temperature (°C),Box temperature (°C),Sample RH (%),Span deviation,Mass concentration (μg/m³),Mass concentration (μg/m³),Mass concentration (μg/m³)
DateTimeUTC,F1_M11,P_M11,Q1_M11,Q2_M11,T1_M11,T2_M11,T3_M11,T4_M11,T5_M11,U1_M11,ZSPAN_M11,X2_M11,X0_M11,X1_M11
2021-09-29 13:00:00,,0821.4,5.01,0.00,30.1,29.2,00.0,39.2,31.9,19.4,0001.3,0004.85,0008.97,0004.35
2021-09-29 13:01:00,,0821.4,4.99,0.00,30.1,29.3,00.0,39.2,31.9,19.3,0001.4,0004.84,0008.96,0004.34
2021-09-29 13:02:00,,0821.4,5.00,0.00,30.1,29.3,00.0,39.2,31.9,19.2,0001.5,0004.80,0008.86,0004.33
2021-09-29 13:03:00,,0821.4,5.01,0.00,30.1,29.2,00.0,39.3,31.9,19.1,0001.7,0004.78,0008.86,0004.31
2021-09-29 13:04:00,,0821.4,5.00,0.00,30.1,29.2,00.0,39.3,31.9,19.0,0001.9,0004.75,0008.65,0004.30
2021-09-29 13:05:00,,0821.4,5.00,0.00,30.2,29.2,00.0,39.3,31.9,19.0,0002.3,0004.73,0008.58,0004.29
2021-09-29 13:06:00,,0821.4,5.00,0.00,30.2,29.3,00.0,39.3,31.9,19.0,0002.6,0004.74,0008.59,0004.28
2021-09-29 13:07:00,,0821.4,5.01,0.00,30.2,29.3,00.0,39.3,31.9,19.0,0002.8,0004.74,0008.55,0004.27
2021-09-29 13:08:00,,0821.4,5.00,0.00,30.2,29.3,00.0,39.3,31.9,19.0,0003.1,0004.73,0008.14,0004.26
2021-09-29 13:09:00,,0821.4,4.99,0.00,30.2,29.3,00.0,39.3,31.9,18.9,0003.3,0004.74,0008.07,0004.25
2021-09-29 13:10:00,,0821.4,5.01,0.00,30.2,29.4,00.0,39.3,32.0,18.9,0003.3,0004.71,0008.02,0004.24
2021-09-29 13:11:00,,0821.4,4.99,0.00,30.2,29.4,00.0,39.3,32.0,18.9,0003.1,0004.68,0007.95,0004.22
2021-09-29 13:12:00,,0821.4,5.00,0.00,30.3,29.4,00.0,39.3,32.0,19.3,0003.2,0004.67,0008.03,0004.21
2021-09-29 13:13:00,,0821.4,5.02,0.00,30.3,29.4,00.0,39.3,32.0,19.4,0003.0,0004.67,0008.07,0004.22
2021-09-29 13:14:00,,0821.4,5.00,0.00,30.3,29.4,00.0,39.3,32.0,19.5,0002.8,0004.70,0008.33,0004.24
2021-09-29 13:15:00,,0821.4,4.99,0.00,30.3,29.4,00.0,39.3,32.0,19.3,0002.7,0004.73,0008.42,0004.26
2021-09-29 13:16:00,,0821.4,5.01,0.00,30.3,29.5,00.0,39.4,32.1,19.3,0002.9,0004.72,0008.46,0004.27
2021-09-29 13:17:00,,0821.4,4.99,0.00,30.3,29.5,00.0,39.4,32.1,19.1,0003.0,0004.71,0008.52,0004.28
2021-09-29 13:18:00,,0821.4,5.00,0.00,30.4,29.5,00.0,39.4,32.1,18.9,0002.9,0004.71,0008.52,0004.29
2021-09-29 13:19:00,,0821.4,5.01,0.00,30.4,29.5,00.0,39.4,32.1,18.7,0002.3,0004.70,0008.50,0004.29
2021-09-29 13:20:00,,0821.5,4.99,0.00,30.4,29.5,00.0,39.4,32.1,18.6,0001.9,0004.69,0008.41,0004.29
2021-09-29 13:21:00,,0821.6,5.01,0.00,30.4,29.5,00.0,39.4,32.1,18.6,0001.9,0004.68,0008.39,0004.28
2021-09-29 13:22:00,,0821.6,5.00,0.00,30.4,29.5,00.0,39.4,32.1,18.6,0002.0,0004.66,0008.45,0004.27
2021-09-29 13:23:00,,0821.6,5.00,0.00,30.4,29.5,00.0,39.5,32.1,18.5,0001.9,0004.63,0008.37,0004.27
2021-09-29 13:24:00,,0821.7,5.00,0.00,30.4,29.5,00.0,39.5,32.2,18.5,0002.0,0004.61,0008.36,0004.25
2021-09-29 13:25:00,,0821.7,5.01,0.00,30.4,29.5,00.0,39.5,32.2,18.4,0002.0,0004.55,0008.03,0004.22
2021-09-29 13:26:00,,0821.7,4.99,0.00,30.4,29.5,00.0,39.5,32.2,18.4,0001.8,0004.50,0007.95,0004.18
2021-09-29 13:27:00,,0821.7,5.00,0.00,30.4,28.4,00.0,39.5,31.9,18.4,0001.7,0004.44,0007.82,0004.13
2021-09-29 13:28:00,,0821.7,5.00,0.00,30.3,26.7,00.0,39.5,31.5,18.6,0001.3,0004.42,0007.66,0004.10
2021-09-29 13:29:00,,0821.8,5.01,0.00,30.1,26.6,00.0,39.4,31.4,18.8,0001.0,0004.39,0007.65,0004.08
2021-09-29 13:30:00,,0821.8,5.00,0.00,30.0,27.0,00.0,39.4,31.4,19.5,0001.3,0004.40,0007.90,0004.08
2021-09-29 13:31:00,,0821.8,4.99,0.00,30.0,27.4,00.0,39.3,31.5,20.1,0001.6,0004.44,0008.69,0004.10
2021-09-29 13:32:00,,0821.8,5.00,0.00,30.0,27.7,00.0,39.3,31.5,19.8,0001.8,0004.48,0009.06,0004.11
2021-09-29 13:33:00,,0821.8,5.00,0.00,30.0,28.0,00.0,39.2,31.6,18.7,0001.8,0004.49,0009.03,0004.10
2021-09-29 13:34:00,,0821.8,4.99,0.00,30.0,28.3,00.0,39.2,31.6,19.1,0002.1,0004.54,0009.64,0004.10
2021-09-29 13:35:00,,0821.8,5.01,0.00,30.0,28.5,00.0,39.2,31.7,19.4,0002.2,0004.58,0009.79,0004.10
2021-09-29 13:36:00,,0821.8,4.99,0.00,30.0,28.6,00.0,39.2,31.7,19.0,0002.2,0004.64,0010.11,0004.11
2021-09-29 13:37:00,,0821.8,5.01,0.00,30.0,28.7,00.0,39.2,31.7,19.6,0002.1,0004.71,0010.40,0004.13
2021-09-29 13:38:00,,0821.8,4.99,0.00,30.0,28.8,00.0,39.2,31.8,19.8,0002.1,0004.81,0010.95,0004.17
2021-09-29 13:39:00,,0821.8,5.02,0.00,30.0,28.9,00.0,39.2,31.8,19.9,0002.4,0004.88,0011.70,0004.19
2021-09-29 13:40:00,,0821.8,4.98,0.00,30.1,28.9,00.0,39.2,31.8,19.7,0002.7,0004.93,0012.65,0004.20
2021-09-29 13:41:00,,0821.8,5.01,0.00,30.1,29.0,00.0,39.2,31.9,19.7,0002.3,0004.95,0013.05,0004.19
2021-09-29 13:42:00,,0821.9,5.00,0.00,30.1,29.1,00.0,39.2,31.9,19.6,0002.1,0004.93,0012.45,0004.17
2021-09-29 13:43:00,,0822.2,5.00,0.00,30.1,29.1,00.0,39.2,31.9,19.6,0002.1,0004.92,0012.15,0004.17
2021-09-29 13:44:00,,0822.0,5.00,0.00,30.1,29.2,00.0,39.2,31.9,20.0,0002.1,0004.92,0012.63,0004.18
2021-09-29 13:45:00,,0822.0,5.00,0.00,30.1,29.2,00.0,39.2,31.9,20.5,0001.6,0004.95,0013.35,0004.20
2021-09-29 13:46:00,,0822.0,5.00,0.00,30.2,29.2,00.0,39.2,31.9,20.3,0001.3,0004.99,0013.58,0004.22
2021-09-29 13:47:00,,0822.1,4.99,0.00,30.2,29.2,00.0,39.2,32.0,19.9,0001.2,0005.00,0014.18,0004.23
2021-09-29 13:48:00,,0822.1,5.02,0.00,30.2,29.3,00.0,39.3,32.0,20.6,0001.3,0004.99,0014.26,0004.25
2021-09-29 13:49:00,,0822.2,4.99,0.00,30.2,29.3,00.0,39.3,32.0,20.9,0001.3,0004.97,0013.93,0004.26
2021-09-29 13:50:00,,0822.2,5.00,0.00,30.2,29.3,00.0,39.3,32.0,21.4,0001.4,0004.96,0013.77,0004.27
2021-09-29 13:51:00,,0822.2,5.00,0.00,30.2,29.3,00.0,39.3,32.0,21.4,0001.5,0004.99,0013.39,0004.28
2021-09-29 13:52:00,,0822.4,4.99,0.00,30.2,29.3,00.0,39.3,32.0,21.5,0001.9,0005.05,0013.37,0004.30
2021-09-29 13:53:00,,0822.4,5.00,0.00,30.2,29.3,00.0,39.3,32.0,21.6,0002.2,0005.12,0015.03,0004.32
2021-09-29 13:54:00,,0822.3,5.01,0.00,30.2,29.3,00.0,39.3,32.0,21.7,0002.0,0005.18,0015.88,0004.33
2021-09-29 13:55:00,,0822.4,5.00,0.00,30.2,29.3,00.0,39.3,32.0,21.9,0001.8,0005.24,0015.53,0004.36
2021-09-29 13:56:00,,0822.4,4.99,0.00,30.3,29.3,00.0,39.3,32.0,21.9,0001.9,0005.26,0015.36,0004.38
2021-09-29 13:57:00,,0822.4,5.01,0.00,30.3,29.3,00.0,39.3,32.0,21.9,0002.2,0005.32,0017.10,0004.40
2021-09-29 13:58:00,,0822.4,4.99,0.00,30.3,29.3,00.0,39.4,32.0,22.0,0002.0,0005.37,0016.58,0004.42
2021-09-29 13:59:00,,0822.5,5.01,0.00,30.3,29.3,00.0,39.4,32.0,22.1,0002.2,0005.42,0016.39,0004.42
